| time (UTC) | temp F | wind direction | speed knots | gust knots | rain 1hr in | rain 24hr in | rain mn in | humidity % | barometer mb |
| 20260506062034 | 76 | 252 | 1.7 | 7.0 | 0.00 | 0.00 | 0.00 | 82 | 1005.7 |
| 20260506061536 | 76 | 151 | 1.7 | 4.3 | 0.00 | 0.00 | 0.00 | 82 | 1005.8 |
| 20260506061034 | 76 | 165 | 0.9 | 6.1 | 0.00 | 0.00 | 0.00 | 82 | 1005.9 |
| 20260506060534 | 76 | 166 | 2.6 | 6.1 | 0.00 | 0.00 | 0.00 | 82 | 1005.9 |
| 20260506051028 | 76 | 138 | 0.9 | 5.2 | 0.00 | 0.00 | 0.00 | 81 | 1005.7 |
| 20260506050527 | 76 | 179 | 1.7 | 7.8 | 0.00 | 0.00 | 0.00 | 81 | 1005.7 |
| 20260506045026 | 76 | 117 | 2.6 | 6.1 | 0.00 | 0.00 | 0.00 | 81 | 1005.8 |
| 20260506044535 | 76 | 136 | 2.6 | 5.2 | 0.00 | 0.00 | 0.00 | 81 | 1005.8 |
| 20260506044024 | 77 | 108 | 0.9 | 3.5 | 0.00 | 0.00 | 0.00 | 81 | 1005.8 |
| 20260506043527 | 77 | 108 | 1.7 | 6.1 | 0.00 | 0.00 | 0.00 | 81 | 1005.8 |
| 20260506043027 | 77 | 113 | 1.7 | 6.1 | 0.00 | 0.00 | 0.00 | 81 | 1005.7 |
| 20260506042524 | 77 | 144 | 1.7 | 7.0 | 0.00 | 0.00 | 0.00 | 81 | 1005.8 |
| 20260506042023 | 77 | 46 | 0.9 | 7.8 | 0.00 | 0.00 | 0.00 | 81 | 1005.7 |
| 20260506041525 | 77 | 126 | 1.7 | 7.8 | 0.00 | 0.00 | 0.00 | 80 | 1005.6 |
| 20260506041023 | 77 | 182 | 0.9 | 4.3 | 0.00 | 0.00 | 0.00 | 80 | 1005.5 |
| 20260506040523 | 77 | 135 | 1.7 | 7.8 | 0.00 | 0.00 | 0.00 | 80 | 1005.4 |
| 20260506040023 | 77 | 152 | 2.6 | 7.8 | 0.00 | 0.00 | 0.00 | 80 | 1005.4 |
| 20260506035523 | 77 | 157 | 0.9 | 5.2 | 0.00 | 0.00 | 0.00 | 80 | 1005.3 |
| 20260506035023 | 77 | 151 | 0.9 | 6.1 | 0.00 | 0.00 | 0.00 | 79 | 1005.1 |
| 20260506034523 | 78 | 128 | 1.7 | 8.7 | 0.00 | 0.00 | 0.00 | 79 | 1005.1 |
| 20260506034022 | 78 | 132 | 2.6 | 9.6 | 0.00 | 0.00 | 0.00 | 79 | 1005.0 |
| 20260506033522 | 78 | 170 | 3.5 | 9.6 | 0.00 | 0.00 | 0.00 | 79 | 1005.0 |
| 20260506033022 | 78 | 145 | 1.7 | 8.7 | 0.00 | 0.00 | 0.00 | 78 | 1005.0 |
| 20260506032522 | 78 | 155 | 1.7 | 8.7 | 0.00 | 0.00 | 0.00 | 78 | 1004.9 |
| 20260506032022 | 78 | 153 | 2.6 | 7.0 | 0.00 | 0.00 | 0.00 | 78 | 1004.9 |
| 20260506031524 | 78 | 169 | 0.9 | 3.5 | 0.00 | 0.00 | 0.00 | 78 | 1005.1 |
| 20260506031022 | 78 | 38 | 0.9 | 7.0 | 0.00 | 0.00 | 0.00 | 78 | 1004.9 |
| 20260506030521 | 78 | 157 | 2.6 | 9.6 | 0.00 | 0.00 | 0.00 | 77 | 1004.8 |
| 20260506030022 | 79 | 123 | 2.6 | 7.0 | 0.00 | 0.00 | 0.00 | 77 | 1004.7 |
| 20260506025525 | 79 | 94 | 0.9 | 10.4 | 0.00 | 0.00 | 0.00 | 77 | 1004.7 |
| 20260506025021 | 79 | 165 | 3.5 | 10.4 | 0.00 | 0.00 | 0.00 | 76 | 1004.5 |
| 20260506024530 | 80 | 135 | 1.7 | 5.2 | 0.00 | 0.00 | 0.00 | 76 | 1004.4 |
| 20260506024020 | 80 | 135 | 1.7 | 4.3 | 0.00 | 0.00 | 0.00 | 76 | 1004.4 |
| 20260506023520 | 80 | 97 | 0.0 | 4.3 | 0.00 | 0.00 | 0.00 | 76 | 1004.5 |
| 20260506023020 | 80 | 157 | 1.7 | 4.3 | 0.00 | 0.00 | 0.00 | 75 | 1004.4 |
| 20260506022520 | 80 | 132 | 0.9 | 4.3 | 0.00 | 0.00 | 0.00 | 75 | 1004.4 |
| 20260506022020 | 80 | 143 | 0.9 | 4.3 | 0.00 | 0.00 | 0.00 | 75 | 1004.3 |
| 20260506021520 | 80 | 105 | 0.0 | 8.7 | 0.00 | 0.00 | 0.00 | 75 | 1004.3 |
| 20260506021020 | 81 | 113 | 1.7 | 8.7 | 0.00 | 0.00 | 0.00 | 75 | 1004.0 |
| 20260506020523 | 81 | 85 | 0.9 | 8.7 | 0.00 | 0.00 | 0.00 | 74 | 1003.9 |
| 20260506020019 | 81 | 117 | 2.6 | 8.7 | 0.00 | 0.00 | 0.00 | 74 | 1003.8 |
| 20260506015521 | 81 | 126 | 1.7 | 10.4 | 0.00 | 0.00 | 0.00 | 73 | 1003.7 |
| 20260506015019 | 82 | 95 | 2.6 | 10.4 | 0.00 | 0.00 | 0.00 | 73 | 1003.8 |
| 20260506014519 | 82 | 119 | 1.7 | 8.7 | 0.00 | 0.00 | 0.00 | 72 | 1003.7 |
| 20260506014018 | 82 | 70 | 0.9 | 8.7 | 0.00 | 0.00 | 0.00 | 72 | 1003.7 |
| 20260506013518 | 82 | 46 | 1.7 | 8.7 | 0.00 | 0.00 | 0.00 | 71 | 1003.6 |
| 20260506013022 | 83 | 92 | 1.7 | 7.0 | 0.00 | 0.00 | 0.00 | 71 | 1003.5 |
| 20260506012518 | 83 | 88 | 0.9 | 5.2 | 0.00 | 0.00 | 0.00 | 70 | 1003.4 |
| 20260506012017 | 83 | 167 | 1.7 | 5.2 | 0.00 | 0.00 | 0.00 | 70 | 1003.4 |
| 20260506011517 | 83 | 88 | 0.9 | 8.7 | 0.00 | 0.00 | 0.00 | 69 | 1003.3 |
| 20260506011018 | 83 | 71 | 2.6 | 8.7 | 0.00 | 0.00 | 0.00 | 69 | 1003.2 |
| 20260506010516 | 84 | 81 | 2.6 | 6.1 | 0.00 | 0.00 | 0.00 | 68 | 1003.1 |
| 20260506010017 | 84 | 102 | 1.7 | 4.3 | 0.00 | 0.00 | 0.00 | 68 | 1003.0 |
| 20260506005516 | 84 | 106 | 0.9 | 5.2 | 0.00 | 0.00 | 0.00 | 68 | 1002.9 |
| 20260506005020 | 84 | 92 | 0.9 | 5.2 | 0.00 | 0.00 | 0.00 | 68 | 1002.9 |
| 20260506004516 | 84 | 115 | 0.9 | 3.5 | 0.00 | 0.00 | 0.00 | 68 | 1002.9 |
| 20260506004015 | 84 | 74 | 0.9 | 7.8 | 0.00 | 0.00 | 0.00 | 68 | 1002.9 |
| 20260506003515 | 84 | 159 | 2.6 | 7.8 | 0.00 | 0.00 | 0.00 | 67 | 1002.9 |
| 20260506003015 | 85 | 117 | 0.9 | 4.3 | 0.00 | 0.00 | 0.00 | 67 | 1002.9 |
| 20260506002514 | 85 | 161 | 0.0 | 5.2 | 0.00 | 0.00 | 0.00 | 67 | 1002.9 |
| 20260506002014 | 85 | 100 | 0.9 | 5.2 | 0.00 | 0.00 | 0.00 | 67 | 1002.9 |
| 20260506001516 | 85 | 88 | 1.7 | 5.2 | 0.00 | 0.00 | 0.00 | 67 | 1002.8 |
| 20260506001014 | 85 | 92 | 1.7 | 7.8 | 0.00 | 0.00 | 0.00 | 67 | 1002.8 |
| 20260506000514 | 85 | 112 | 1.7 | 7.8 | 0.00 | 0.00 | 0.00 | 66 | 1002.7 |
| 20260506000013 | 86 | 78 | 0.9 | 6.1 | 0.00 | 0.00 | 0.00 | 66 | 1002.7 |
| 20260505235513 | 86 | 59 | 1.7 | 8.7 | 0.00 | 0.00 | 0.00 | 65 | 1002.6 |
| 20260505235015 | 87 | 70 | 0.9 | 7.8 | 0.00 | 0.00 | 0.00 | 65 | 1002.6 |
| 20260505234527 | 86 | 355 | 1.7 | 7.8 | 0.00 | 0.00 | 0.00 | 65 | 1002.5 |
| 20260505234011 | 87 | 74 | 2.6 | 6.1 | 0.00 | 0.00 | 0.00 | 64 | 1002.5 |
| 20260505233511 | 87 | 71 | 0.0 | 3.5 | 0.00 | 0.00 | 0.00 | 64 | 1002.5 |
| 20260505233016 | 87 | 104 | 0.0 | 3.5 | 0.00 | 0.00 | 0.00 | 64 | 1002.6 |
| 20260505232512 | 87 | 97 | 0.9 | 3.5 | 0.00 | 0.00 | 0.00 | 64 | 1002.5 |
| 20260505232012 | 87 | 94 | 0.9 | 6.1 | 0.00 | 0.00 | 0.00 | 63 | 1002.5 |
| 20260505231514 | 87 | 106 | 1.7 | 6.1 | 0.00 | 0.00 | 0.00 | 63 | 1002.5 |
| 20260505231011 | 88 | 69 | 0.9 | 5.2 | 0.00 | 0.00 | 0.00 | 63 | 1002.5 |
| 20260505230513 | 88 | 101 | 1.7 | 4.3 | 0.00 | 0.00 | 0.00 | 63 | 1002.5 |
| 20260505230014 | 88 | 167 | 0.9 | 5.2 | 0.00 | 0.00 | 0.00 | 63 | 1002.5 |
| 20260505225511 | 88 | 138 | 1.7 | 6.1 | 0.00 | 0.00 | 0.00 | 63 | 1002.4 |
| 20260505225010 | 88 | 73 | 2.6 | 7.0 | 0.00 | 0.00 | 0.00 | 63 | 1002.4 |
| 20260505224510 | 87 | 157 | 3.5 | 7.0 | 0.00 | 0.00 | 0.00 | 62 | 1002.4 |
| 20260505224010 | 87 | 143 | 2.6 | 8.7 | 0.00 | 0.00 | 0.00 | 62 | 1002.5 |
| 20260505223508 | 87 | 186 | 3.5 | 8.7 | 0.00 | 0.00 | 0.00 | 62 | 1002.5 |
| 20260505223011 | 87 | 168 | 1.7 | 6.1 | 0.00 | 0.00 | 0.00 | 62 | 1002.6 |
| 20260505222507 | 87 | 175 | 1.7 | 7.8 | 0.00 | 0.00 | 0.00 | 63 | 1002.5 |
| 20260505222007 | 87 | 123 | 3.5 | 7.8 | 0.00 | 0.00 | 0.00 | 62 | 1002.7 |
| 20260505221507 | 87 | 149 | 3.5 | 7.0 | 0.00 | 0.00 | 0.00 | 63 | 1002.7 |
| 20260505221006 | 87 | 250 | 1.7 | 4.3 | 0.00 | 0.00 | 0.00 | 62 | 1002.9 |
| 20260505220505 | 87 | 140 | 1.7 | 5.2 | 0.00 | 0.00 | 0.00 | 63 | 1002.8 |
| 20260505220009 | 87 | 117 | 0.9 | 8.7 | 0.00 | 0.00 | 0.00 | 64 | 1002.9 |
| 20260505215505 | 87 | 105 | 2.6 | 8.7 | 0.00 | 0.00 | 0.00 | 63 | 1002.8 |
| 20260505215006 | 86 | 142 | 2.6 | 7.8 | 0.00 | 0.00 | 0.00 | 64 | 1002.8 |
| 20260505214504 | 85 | 188 | 2.6 | 7.0 | 0.00 | 0.00 | 0.00 | 65 | 1003.0 |
| 20260505214002 | 86 | 181 | 3.5 | 9.6 | 0.00 | 0.00 | 0.00 | 64 | 1003.0 |
| 20260505213503 | 86 | 165 | 3.5 | 9.6 | 0.00 | 0.00 | 0.00 | 63 | 1003.2 |
| 20260505213001 | 87 | 138 | 1.7 | 8.7 | 0.00 | 0.00 | 0.00 | 62 | 1003.4 |
| 20260505212603 | 86 | 131 | 1.7 | 8.7 | 0.00 | 0.00 | 0.00 | 64 | 1003.5 |
| 20260505212100 | 86 | 188 | 2.6 | 6.1 | 0.00 | 0.00 | 0.00 | 64 | 1003.5 |
| 20260505211614 | 86 | 167 | 1.7 | 8.7 | 0.00 | 0.00 | 0.00 | 64 | 1003.6 |
| 20260505211058 | 86 | 159 | 3.5 | 8.7 | 0.00 | 0.00 | 0.00 | 63 | 1003.7 |
| 20260505210558 | 86 | 167 | 0.0 | 9.6 | 0.00 | 0.00 | 0.00 | 64 | 1003.7 |
| 20260505210058 | 85 | 173 | 4.3 | 10.4 | 0.00 | 0.00 | 0.00 | 64 | 1003.8 |
| 20260505205558 | 85 | 178 | 4.3 | 10.4 | 0.00 | 0.00 | 0.00 | 64 | 1003.8 |
| 20260505205058 | 87 | 160 | 1.7 | 7.8 | 0.00 | 0.00 | 0.00 | 63 | 1003.9 |
| 20260505204555 | 86 | 133 | 1.7 | 7.0 | 0.00 | 0.00 | 0.00 | 65 | 1003.9 |
| 20260505204056 | 85 | 250 | 3.5 | 7.0 | 0.00 | 0.00 | 0.00 | 64 | 1004.1 |
| 20260505203553 | 85 | 144 | 3.5 | 7.0 | 0.00 | 0.00 | 0.00 | 65 | 1004.3 |
| 20260505203054 | 86 | 123 | 2.6 | 7.0 | 0.00 | 0.00 | 0.00 | 64 | 1004.3 |
| 20260505202552 | 86 | 166 | 2.6 | 6.1 | 0.00 | 0.00 | 0.00 | 65 | 1004.4 |
| 20260505202055 | 84 | 185 | 0.0 | 7.0 | 0.00 | 0.00 | 0.00 | 67 | 1004.4 |
| 20260505201605 | 83 | 153 | 2.6 | 7.0 | 0.00 | 0.00 | 0.00 | 67 | 1004.6 |
| 20260505201052 | 84 | 147 | 1.7 | 7.8 | 0.00 | 0.00 | 0.00 | 67 | 1004.5 |
| 20260505200551 | 84 | 177 | 2.6 | 7.8 | 0.00 | 0.00 | 0.00 | 66 | 1004.6 |
| 20260505195552 | 84 | 182 | 0.9 | 4.3 | 0.00 | 0.00 | 0.00 | 67 | 1004.7 |
| 20260505195049 | 83 | 155 | 0.0 | 6.1 | 0.00 | 0.00 | 0.00 | 68 | 1004.7 |
| 20260505194600 | 83 | 126 | 0.9 | 6.1 | 0.00 | 0.00 | 0.00 | 68 | 1004.8 |
| 20260505194048 | 83 | 90 | 1.7 | 5.2 | 0.00 | 0.00 | 0.00 | 68 | 1004.9 |
| 20260505193548 | 83 | 138 | 1.7 | 6.1 | 0.00 | 0.00 | 0.00 | 67 | 1005.0 |
| 20260505193047 | 84 | 163 | 1.7 | 8.7 | 0.00 | 0.00 | 0.00 | 69 | 1005.0 |
| 20260505192545 | 83 | 171 | 2.6 | 8.7 | 0.00 | 0.00 | 0.00 | 69 | 1005.0 |
| 20260505192045 | 82 | 161 | 2.6 | 8.7 | 0.00 | 0.00 | 0.00 | 70 | 1005.2 |
| 20260505191545 | 82 | 171 | 1.7 | 5.2 | 0.00 | 0.00 | 0.00 | 69 | 1005.3 |
| 20260505191043 | 82 | 193 | 0.9 | 5.2 | 0.00 | 0.00 | 0.00 | 70 | 1005.4 |
| 20260505190543 | 81 | 163 | 3.5 | 12.2 | 0.00 | 0.00 | 0.00 | 70 | 1005.5 |
| 20260505190048 | 82 | 240 | 4.3 | 12.2 | 0.00 | 0.00 | 0.00 | 69 | 1005.6 |
| 20260505185542 | 81 | 244 | 2.6 | 7.0 | 0.00 | 0.00 | 0.00 | 70 | 1005.6 |
| 20260505185042 | 81 | 194 | 3.5 | 7.0 | 0.00 | 0.00 | 0.00 | 71 | 1005.6 |
| 20260505184542 | 81 | 213 | 2.6 | 7.0 | 0.00 | 0.00 | 0.00 | 70 | 1005.7 |
| 20260505184041 | 81 | 234 | 2.6 | 7.0 | 0.00 | 0.00 | 0.00 | 71 | 1005.7 |
| 20260505183540 | 81 | 150 | 3.5 | 7.8 | 0.00 | 0.00 | 0.00 | 71 | 1005.8 |
| 20260505183047 | 80 | 169 | 3.5 | 7.8 | 0.00 | 0.00 | 0.00 | 71 | 1005.9 |
| 20260505182540 | 80 | 203 | 2.6 | 8.7 | 0.00 | 0.00 | 0.00 | 71 | 1006.0 |
| 20260505182040 | 81 | 215 | 2.6 | 8.7 | 0.00 | 0.00 | 0.00 | 72 | 1005.9 |
| 20260505181541 | 80 | 153 | 3.5 | 8.7 | 0.00 | 0.00 | 0.00 | 72 | 1005.9 |
| 20260505181042 | 81 | 178 | 2.6 | 8.7 | 0.00 | 0.00 | 0.00 | 71 | 1005.9 |
| 20260505180538 | 80 | 154 | 2.6 | 8.7 | 0.00 | 0.00 | 0.00 | 72 | 1005.9 |
| 20260505180038 | 80 | 161 | 5.2 | 8.7 | 0.00 | 0.00 | 0.00 | 72 | 1006.0 |
| 20260505175536 | 79 | 213 | 3.5 | 7.8 | 0.00 | 0.00 | 0.00 | 73 | 1006.1 |
| 20260505175036 | 79 | 196 | 2.6 | 7.0 | 0.00 | 0.00 | 0.00 | 73 | 1006.1 |
| 20260505174536 | 79 | 171 | 3.5 | 8.7 | 0.00 | 0.00 | 0.00 | 74 | 1006.1 |
| 20260505174034 | 78 | 161 | 2.6 | 7.0 | 0.00 | 0.00 | 0.00 | 75 | 1006.1 |
| 20260505173536 | 78 | 173 | 3.5 | 7.8 | 0.00 | 0.00 | 0.00 | 75 | 1006.2 |
| 20260505173041 | 78 | 238 | 4.3 | 7.8 | 0.00 | 0.00 | 0.00 | 75 | 1006.3 |
| 20260505172532 | 78 | 213 | 3.5 | 8.7 | 0.00 | 0.00 | 0.00 | 75 | 1006.3 |
| 20260505172031 | 78 | 188 | 4.3 | 8.7 | 0.00 | 0.00 | 0.00 | 75 | 1006.3 |
| 20260505171534 | 78 | 208 | 4.3 | 8.7 | 0.00 | 0.00 | 0.00 | 76 | 1006.3 |
| 20260505171029 | 77 | 260 | 4.3 | 8.7 | 0.00 | 0.00 | 0.00 | 76 | 1006.2 |
| 20260505170528 | 77 | 267 | 1.7 | 12.2 | 0.00 | 0.00 | 0.00 | 77 | 1006.3 |
| 20260505170034 | 77 | 225 | 2.6 | 7.8 | 0.00 | 0.00 | 0.00 | 78 | 1006.2 |
| 20260505165526 | 76 | 215 | 2.6 | 7.8 | 0.00 | 0.00 | 0.00 | 78 | 1006.3 |
| 20260505165025 | 76 | 229 | 2.6 | 8.7 | 0.00 | 0.00 | 0.00 | 78 | 1006.3 |
| 20260505164524 | 76 | 130 | 4.3 | 8.7 | 0.00 | 0.00 | 0.00 | 79 | 1006.3 |
| 20260505164023 | 75 | 168 | 2.6 | 8.7 | 0.00 | 0.00 | 0.00 | 79 | 1006.3 |
| 20260505163521 | 75 | 200 | 2.6 | 8.7 | 0.00 | 0.00 | 0.00 | 80 | 1006.4 |
| 20260505163021 | 75 | 191 | 3.5 | 9.6 | 0.00 | 0.00 | 0.00 | 80 | 1006.4 |
| 20260505162520 | 75 | 185 | 4.3 | 8.7 | 0.00 | 0.00 | 0.00 | 80 | 1006.4 |
| 20260505162018 | 74 | 228 | 2.6 | 7.0 | 0.00 | 0.00 | 0.00 | 81 | 1006.4 |
| 20260505161525 | 74 | 140 | 1.7 | 8.7 | 0.00 | 0.00 | 0.00 | 81 | 1006.5 |
| 20260505161017 | 74 | 189 | 3.5 | 8.7 | 0.00 | 0.00 | 0.00 | 81 | 1006.4 |
| 20260505160517 | 74 | 190 | 3.5 | 8.7 | 0.00 | 0.00 | 0.00 | 81 | 1006.5 |
| 20260505153011 | 73 | 215 | 2.6 | 7.8 | 0.00 | 0.00 | 0.00 | 83 | 1006.4 |
| 20260505152511 | 73 | 183 | 2.6 | 7.8 | 0.00 | 0.00 | 0.00 | 83 | 1006.4 |
| 20260505152010 | 72 | 176 | 3.5 | 8.7 | 0.00 | 0.00 | 0.00 | 83 | 1006.4 |
| 20260505151510 | 72 | 207 | 3.5 | 8.7 | 0.00 | 0.00 | 0.00 | 83 | 1006.4 |
| 20260505151008 | 72 | 148 | 2.6 | 7.8 | 0.00 | 0.00 | 0.00 | 84 | 1006.3 |
| 20260505150507 | 72 | 186 | 2.6 | 7.8 | 0.00 | 0.00 | 0.00 | 84 | 1006.3 |
| 20260505140600 | 70 | 194 | 3.5 | 7.8 | 0.00 | 0.00 | 0.00 | 85 | 1006.4 |
| 20260505140119 | 70 | 175 | 3.5 | 7.8 | 0.00 | 0.00 | 0.00 | 85 | 1006.4 |
| 20260505124651 | 70 | 166 | 1.7 | 7.8 | 0.00 | 0.00 | 0.00 | 85 | 1006.1 |
| 20260505124050 | 70 | 234 | 4.3 | 10.4 | 0.00 | 0.00 | 0.00 | 85 | 1006.0 |
| 20260505123549 | 70 | 211 | 5.2 | 13.9 | 0.00 | 0.00 | 0.00 | 85 | 1005.9 |
| 20260505123048 | 70 | 170 | 3.5 | 13.9 | 0.00 | 0.00 | 0.00 | 85 | 1005.8 |
| 20260505122547 | 70 | 167 | 3.5 | 8.7 | 0.00 | 0.00 | 0.00 | 85 | 1005.8 |
| 20260505122047 | 70 | 177 | 4.3 | 8.7 | 0.00 | 0.00 | 0.00 | 85 | 1005.6 |
| 20260505121547 | 70 | 184 | 1.7 | 7.8 | 0.00 | 0.00 | 0.00 | 85 | 1005.6 |
| 20260505121047 | 70 | 209 | 2.6 | 7.8 | 0.00 | 0.00 | 0.00 | 85 | 1005.6 |
| 20260505120546 | 70 | 186 | 4.3 | 7.8 | 0.00 | 0.00 | 0.00 | 85 | 1005.6 |
| 20260505120051 | 70 | 220 | 3.5 | 7.0 | 0.00 | 0.00 | 0.00 | 85 | 1005.5 |
| 20260505115549 | 70 | 182 | 2.6 | 8.7 | 0.00 | 0.00 | 0.00 | 85 | 1005.4 |
| 20260505115046 | 70 | 162 | 3.5 | 8.7 | 0.00 | 0.00 | 0.00 | 85 | 1005.4 |
| 20260505114548 | 70 | 198 | 3.5 | 7.0 | 0.00 | 0.00 | 0.00 | 85 | 1005.4 |
| 20260505114045 | 70 | 217 | 2.6 | 7.0 | 0.00 | 0.00 | 0.00 | 85 | 1005.3 |
| 20260505113547 | 70 | 184 | 2.6 | 7.0 | 0.00 | 0.00 | 0.00 | 85 | 1005.3 |
| 20260505113045 | 70 | 143 | 2.6 | 8.7 | 0.00 | 0.00 | 0.00 | 85 | 1005.2 |
| 20260505112548 | 70 | 196 | 4.3 | 8.7 | 0.00 | 0.00 | 0.00 | 85 | 1005.2 |
| 20260505112044 | 70 | 155 | 4.3 | 8.7 | 0.00 | 0.00 | 0.00 | 85 | 1005.2 |
| 20260505111544 | 70 | 172 | 3.5 | 8.7 | 0.00 | 0.00 | 0.00 | 85 | 1005.2 |
| 20260505111045 | 70 | 172 | 0.9 | 7.8 | 0.00 | 0.00 | 0.00 | 85 | 1005.2 |
| 20260505110544 | 70 | 152 | 1.7 | 9.6 | 0.00 | 0.00 | 0.00 | 85 | 1005.3 |
| 20260505102039 | 70 | 179 | 4.3 | 9.6 | 0.00 | 0.00 | 0.00 | 85 | 1005.4 |
| 20260505101543 | 70 | 254 | 4.3 | 8.7 | 0.00 | 0.00 | 0.00 | 85 | 1005.4 |
| 20260505101040 | 70 | 215 | 2.6 | 10.4 | 0.00 | 0.00 | 0.00 | 85 | 1005.5 |
| 20260505100538 | 70 | 213 | 2.6 | 10.4 | 0.00 | 0.00 | 0.00 | 85 | 1005.5 |
| 20260505100041 | 70 | 205 | 3.5 | 10.4 | 0.00 | 0.00 | 0.00 | 85 | 1005.5 |
| 20260505095538 | 70 | 202 | 3.5 | 12.2 | 0.00 | 0.00 | 0.00 | 85 | 1005.6 |
| 20260505095037 | 69 | 165 | 4.3 | 11.3 | 0.00 | 0.00 | 0.00 | 85 | 1005.6 |
| 20260505094537 | 69 | 195 | 4.3 | 9.6 | 0.00 | 0.00 | 0.00 | 85 | 1005.7 |
| 20260505094036 | 69 | 150 | 3.5 | 9.6 | 0.00 | 0.00 | 0.00 | 85 | 1005.7 |
| 20260505093536 | 69 | 182 | 2.6 | 8.7 | 0.00 | 0.00 | 0.00 | 85 | 1005.8 |
| 20260505093036 | 69 | 167 | 3.5 | 8.7 | 0.00 | 0.00 | 0.00 | 85 | 1005.7 |
| 20260505092539 | 69 | 194 | 2.6 | 8.7 | 0.00 | 0.00 | 0.00 | 85 | 1005.7 |
| 20260505092035 | 69 | 164 | 1.7 | 7.0 | 0.00 | 0.00 | 0.00 | 85 | 1005.7 |
| 20260505091538 | 69 | 171 | 3.5 | 9.6 | 0.00 | 0.00 | 0.00 | 85 | 1005.7 |
| 20260505091034 | 69 | 177 | 3.5 | 15.6 | 0.00 | 0.00 | 0.00 | 85 | 1005.8 |
| 20260505090534 | 69 | 153 | 4.3 | 10.4 | 0.00 | 0.00 | 0.00 | 85 | 1005.7 |
| 20260505090036 | 69 | 208 | 1.7 | 12.2 | 0.00 | 0.00 | 0.00 | 85 | 1005.7 |
| 20260505085534 | 69 | 157 | 4.3 | 9.6 | 0.00 | 0.00 | 0.00 | 85 | 1005.6 |
| 20260505085033 | 69 | 216 | 3.5 | 9.6 | 0.00 | 0.00 | 0.00 | 85 | 1005.6 |
| 20260505084541 | 69 | 161 | 2.6 | 10.4 | 0.00 | 0.00 | 0.00 | 85 | 1005.8 |
| 20260505084031 | 69 | 236 | 2.6 | 9.6 | 0.00 | 0.00 | 0.00 | 85 | 1005.8 |
| 20260505083533 | 69 | 163 | 3.5 | 9.6 | 0.00 | 0.00 | 0.00 | 85 | 1005.9 |
| 20260505083030 | 69 | 152 | 2.6 | 5.2 | 0.00 | 0.00 | 0.00 | 85 | 1006.0 |
| 20260505082530 | 69 | 162 | 1.7 | 9.6 | 0.00 | 0.00 | 0.00 | 85 | 1006.3 |
| 20260505082030 | 69 | 153 | 4.3 | 9.6 | 0.00 | 0.00 | 0.00 | 85 | 1006.3 |
| 20260505081529 | 69 | 159 | 3.5 | 7.8 | 0.00 | 0.00 | 0.00 | 85 | 1006.2 |
| 20260505081027 | 69 | 145 | 2.6 | 9.6 | 0.00 | 0.00 | 0.00 | 85 | 1006.3 |
| 20260505080526 | 69 | 168 | 2.6 | 8.7 | 0.00 | 0.00 | 0.00 | 85 | 1006.4 |
| 20260505080027 | 69 | 184 | 3.5 | 6.1 | 0.00 | 0.00 | 0.00 | 85 | 1006.4 |
| 20260505075526 | 69 | 184 | 2.6 | 7.0 | 0.00 | 0.00 | 0.00 | 85 | 1006.3 |
| 20260505075030 | 69 | 177 | 3.5 | 7.0 | 0.00 | 0.00 | 0.00 | 84 | 1006.4 |
| 20260505074524 | 69 | 163 | 2.6 | 6.1 | 0.00 | 0.00 | 0.00 | 84 | 1006.5 |
| 20260505074023 | 69 | 191 | 0.9 | 7.0 | 0.00 | 0.00 | 0.00 | 84 | 1006.7 |
| 20260505073522 | 69 | 149 | 2.6 | 7.0 | 0.00 | 0.00 | 0.00 | 84 | 1006.7 |
| 20260505073033 | 69 | 160 | 3.5 | 8.7 | 0.00 | 0.00 | 0.00 | 84 | 1006.8 |
| 20260505072521 | 69 | 173 | 2.6 | 8.7 | 0.00 | 0.00 | 0.00 | 84 | 1006.9 |
| 20260505072020 | 69 | 152 | 1.7 | 10.4 | 0.00 | 0.00 | 0.00 | 84 | 1007.0 |
| 20260505071520 | 69 | 157 | 3.5 | 10.4 | 0.00 | 0.00 | 0.00 | 83 | 1007.2 |
| 20260505071020 | 69 | 149 | 2.6 | 12.2 | 0.00 | 0.00 | 0.00 | 83 | 1007.1 |
| 20260505070519 | 69 | 171 | 4.3 | 12.2 | 0.00 | 0.00 | 0.00 | 83 | 1007.1 |